• In Uzbekistan
  • List of Countries
  • For 7 days
  • Water Temperature
  • Satellite Maps
  • Weather Map
  • Weather Widgets
  • user-avatar
    Login

    Hourly Weather Shkoder

    Today, 4 December, Sunday

    Time Temperature Precipitation Wind Pressure Humidity
    00:00 +2°C° 0 mm 3 mps 745 mmHg 79%
    01:00 +3°C° 0 mm 3 mps 745 mmHg 74%
    02:00 +3°C° 0 mm 3 mps 746 mmHg 74%
    03:00 +3°C° 0 mm 3 mps 746 mmHg 74%
    04:00 +3°C° 0 mm 3 mps 746 mmHg 74%
    05:00 +2°C° 0 mm 3 mps 746 mmHg 73%
    06:00 +2°C° 0 mm 3 mps 746 mmHg 72%
    07:00 +2°C° 0 mm 3 mps 746 mmHg 71%
    08:00 +4°C° 0 mm 3 mps 746 mmHg 66%
    09:00 +7°C° 0 mm 3 mps 746 mmHg 60%
    10:00 +8°C° 0 mm 3 mps 747 mmHg 55%
    11:00 +9°C° 0 mm 2 mps 746 mmHg 52%
    12:00 +10°C° 0 mm 2 mps 746 mmHg 50%
    13:00 +12°C° 0 mm 2 mps 746 mmHg 48%
    14:00 +9°C° 0 mm 2 mps 746 mmHg 54%
    15:00 +7°C° 0 mm 2 mps 746 mmHg 60%
    16:00 +6°C° 0 mm 2 mps 746 mmHg 65%
    17:00 +5°C° 0 mm 2 mps 746 mmHg 66%
    18:00 +5°C° 0 mm 2 mps 747 mmHg 67%
    19:00 +3°C° 0 mm 3 mps 747 mmHg 68%
    20:00 +3°C° 0 mm 3 mps 747 mmHg 66%
    21:00 +3°C° 0 mm 3 mps 748 mmHg 65%
    22:00 +2°C° 0 mm 3 mps 748 mmHg 64%
    23:00 +2°C° 0 mm 3 mps 748 mmHg 63%

    Tomorrow, 5 December, Monday

    Time Temperature Precipitation Wind Pressure Humidity
    00:00 +2°C° 0 mm 3 mps 748 mmHg 62%
    01:00 +2°C° 0 mm 3 mps 748 mmHg 61%
    02:00 +2°C° 0 mm 3 mps 748 mmHg 60%
    03:00 +2°C° 0 mm 3 mps 748 mmHg 60%
    04:00 +2°C° 0 mm 3 mps 748 mmHg 59%
    05:00 +2°C° 0 mm 3 mps 748 mmHg 59%
    06:00 +2°C° 0 mm 3 mps 748 mmHg 58%
    07:00 +2°C° 0 mm 3 mps 748 mmHg 58%
    08:00 +5°C° 0 mm 2 mps 749 mmHg 54%
    09:00 +7°C° 0 mm 2 mps 749 mmHg 50%
    10:00 +9°C° 0 mm 2 mps 749 mmHg 46%
    11:00 +10°C° 0 mm 2 mps 749 mmHg 45%
    12:00 +12°C° 0 mm 1 mps 748 mmHg 45%
    13:00 +13°C° 0 mm 1 mps 748 mmHg 44%
    14:00 +10°C° 0 mm 1 mps 748 mmHg 50%
    15:00 +8°C° 0 mm 1 mps 748 mmHg 56%
    16:00 +6°C° 0 mm 1 mps 748 mmHg 63%
    17:00 +6°C° 0 mm 1 mps 748 mmHg 62%
    18:00 +6°C° 0 mm 1 mps 748 mmHg 62%
    19:00 +5°C° 0 mm 1 mps 749 mmHg 61%
    20:00 +5°C° 0 mm 1 mps 749 mmHg 61%
    21:00 +5°C° 0 mm 1 mps 749 mmHg 61%
    22:00 +5°C° 0 mm 1 mps 749 mmHg 61%
    23:00 +5°C° 0 mm 1 mps 749 mmHg 62%

    Day after tomorrow, 6 December, Tuesday

    Time Temperature Precipitation Wind Pressure Humidity
    00:00 +6°C° 0 mm 1 mps 748 mmHg 63%
    01:00 +6°C° 0 mm 1 mps 748 mmHg 64%
    02:00 +6°C° 0 mm 1 mps 748 mmHg 64%
    03:00 +6°C° 0 mm 1 mps 748 mmHg 64%
    04:00 +6°C° 0 mm 1 mps 747 mmHg 65%
    05:00 +6°C° 0 mm 1 mps 747 mmHg 67%
    06:00 +6°C° 0 mm 1 mps 747 mmHg 68%
    07:00 +6°C° 0 mm 1 mps 747 mmHg 70%
    08:00 +8°C° 0 mm 1 mps 748 mmHg 66%
    09:00 +10°C° 0 mm 1 mps 748 mmHg 61%
    10:00 +11°C° 0 mm 0 mps 748 mmHg 56%
    11:00 +12°C° 0 mm 1 mps 748 mmHg 57%
    12:00 +13°C° 0 mm 1 mps 747 mmHg 58%
    13:00 +13°C° 0 mm 1 mps 747 mmHg 58%
    14:00 +10°C° 0 mm 0 mps 747 mmHg 67%
    15:00 +8°C° 0 mm 0 mps 747 mmHg 77%
    16:00 +6°C° 0 mm 0 mps 747 mmHg 86%
    17:00 +7°C° 0 mm 1 mps 747 mmHg 84%
    18:00 +7°C° 0 mm 1 mps 747 mmHg 82%
    19:00 +6°C° 0 mm 1 mps 747 mmHg 81%
    20:00 +5°C° 0 mm 2 mps 747 mmHg 79%
    21:00 +5°C° 0 mm 2 mps 748 mmHg 78%
    22:00 +5°C° 0 mm 2 mps 748 mmHg 77%
    23:00 +5°C° 0 mm 2 mps 748 mmHg 76%

    7 December, Wednesday

    Time Temperature Precipitation Wind Pressure Humidity
    00:00 +5°C° 0 mm 2 mps 748 mmHg 76%
    01:00 +5°C° 0 mm 2 mps 748 mmHg 75%
    02:00 +4°C° 0 mm 3 mps 748 mmHg 76%
    03:00 +4°C° 0 mm 3 mps 748 mmHg 76%
    04:00 +3°C° 0 mm 3 mps 748 mmHg 77%
    05:00 +3°C° 0 mm 3 mps 748 mmHg 77%
    06:00 +3°C° 0 mm 3 mps 749 mmHg 78%
    07:00 +3°C° 0 mm 3 mps 749 mmHg 78%
    08:00 +5°C° 0 mm 3 mps 749 mmHg 72%
    09:00 +7°C° 0 mm 3 mps 749 mmHg 66%
    10:00 +9°C° 0 mm 3 mps 749 mmHg 60%
    11:00 +9°C° 0 mm 3 mps 749 mmHg 58%
    12:00 +10°C° 0 mm 3 mps 749 mmHg 56%
    13:00 +11°C° 0 mm 3 mps 749 mmHg 53%
    14:00 +9°C° 0 mm 3 mps 749 mmHg 59%
    15:00 +8°C° 0 mm 3 mps 749 mmHg 65%
    16:00 +5°C° 0 mm 4 mps 749 mmHg 71%
    17:00 +5°C° 0 mm 4 mps 750 mmHg 73%
    18:00 +4°C° 0 mm 4 mps 750 mmHg 75%
    19:00 +3°C° 0 mm 4 mps 751 mmHg 77%
    20:00 +3°C° 0 mm 4 mps 751 mmHg 76%
    21:00 +3°C° 0 mm 4 mps 752 mmHg 76%
    22:00 +1°C° 0 mm 4 mps 752 mmHg 75%
    23:00 +2°C° 0 mm 3 mps 752 mmHg 74%

    8 December, Thursday

    Time Temperature Precipitation Wind Pressure Humidity
    00:00 +2°C° 0 mm 3 mps 752 mmHg 73%
    01:00 +2°C° 0 mm 3 mps 752 mmHg 72%
    02:00 +2°C° 0 mm 3 mps 752 mmHg 71%
    03:00 +1°C° 0 mm 3 mps 752 mmHg 69%
    04:00 +1°C° 0 mm 3 mps 752 mmHg 68%
    05:00 +1°C° 0 mm 3 mps 752 mmHg 67%
    06:00 +2°C° 0 mm 2 mps 752 mmHg 65%
    07:00 +2°C° 0 mm 2 mps 752 mmHg 64%
    08:00 +4°C° 0 mm 2 mps 753 mmHg 57%
    09:00 +7°C° 0 mm 2 mps 753 mmHg 51%
    10:00 +10°C° 0 mm 1 mps 753 mmHg 45%
    11:00 +11°C° 0 mm 1 mps 752 mmHg 43%
    12:00 +12°C° 0 mm 1 mps 752 mmHg 42%
    13:00 +11°C° 0 mm 0 mps 751 mmHg 40%
    14:00 +10°C° 0 mm 1 mps 751 mmHg 49%
    15:00 +8°C° 0 mm 1 mps 751 mmHg 58%
    16:00 +5°C° 0 mm 1 mps 751 mmHg 68%
    17:00 +5°C° 0 mm 1 mps 751 mmHg 69%
    18:00 +5°C° 0 mm 1 mps 751 mmHg 70%
    19:00 +4°C° 0 mm 1 mps 751 mmHg 71%
    20:00 +4°C° 0 mm 1 mps 751 mmHg 69%
    21:00 +4°C° 0 mm 1 mps 751 mmHg 68%
    22:00 +4°C° 0 mm 1 mps 752 mmHg 67%
    23:00 +4°C° 0 mm 1 mps 751 mmHg 68%

    9 December, Friday

    Time Temperature Precipitation Wind Pressure Humidity
    00:00 +4°C° 0 mm 1 mps 751 mmHg 69%
    01:00 +4°C° 0 mm 1 mps 751 mmHg 70%
    02:00 +4°C° 0 mm 1 mps 751 mmHg 69%
    03:00 +4°C° 0 mm 1 mps 750 mmHg 69%
    04:00 +4°C° 0 mm 1 mps 750 mmHg 69%
    05:00 +4°C° 0 mm 1 mps 750 mmHg 67%
    06:00 +4°C° 0 mm 1 mps 750 mmHg 66%
    07:00 +4°C° 0 mm 1 mps 750 mmHg 64%
    08:00 +6°C° 0 mm 1 mps 750 mmHg 58%
    09:00 +9°C° 0 mm 1 mps 750 mmHg 51%
    10:00 +11°C° 0 mm 1 mps 750 mmHg 45%
    11:00 +12°C° 0 mm 1 mps 750 mmHg 46%
    12:00 +12°C° 0 mm 1 mps 749 mmHg 48%
    13:00 +13°C° 0 mm 1 mps 748 mmHg 50%
    14:00 +11°C° 0 mm 1 mps 748 mmHg 60%
    15:00 +8°C° 0 mm 1 mps 748 mmHg 71%
    16:00 +6°C° 0 mm 1 mps 748 mmHg 81%
    17:00 +6°C° 0 mm 1 mps 748 mmHg 81%
    18:00 +6°C° 0 mm 1 mps 748 mmHg 80%
    19:00 +5°C° 0 mm 1 mps 747 mmHg 79%
    20:00 +5°C° 0 mm 1 mps 747 mmHg 79%
    21:00 +5°C° 0 mm 1 mps 747 mmHg 79%
    22:00 +5°C° 0 mm 1 mps 747 mmHg 78%
    23:00 +5°C° 0 mm 1 mps 747 mmHg 79%
    Show more